Location: Newark
(34.1333°N, 7.9667°W)
Time: 14:18:48
(UTC+00:00)

Vanguard 2 Rocket - Pass Details

Date: 02 August 2021
Orbit: 556 x 3324 km, 32.9° (Epoch: 20 September)

Event Time Altitude Azimuth Distance (km) Brightness Sun altitude
Exits shadow 04:47:19 - 200° (SSW) 3,460 9.4 -11.3°
Reaches altitude 10° 04:50:17 10° 181° (S) 2,626 9.0 -10.8°
Maximum altitude 04:52:42 13° 157° (SSE) 2,208 8.8 -10.3°
Drops below altitude 10° 04:54:49 10° 132° (SE) 2,196 9.1 -10.0°
Sets 04:58:13 0° 100° (E) 2,868 10.4 -9.4°
